SB KEPS @ AMSAT $ORB09036.N 2Line Orbital Elements 09036.AMSAT
HR AMSAT ORBITAL ELEMENTS FOR AMATEUR SATELLITES IN NASA FORMAT FROM WA5QGD FORT WORTH,TX February 5, 2009 Send Subscribe/unsubscribe to KEPS at http://www.amsat.org/mailman/listinfo/keps BID: ORB09036.N
DECODE 2-LINE ELSETS WITH THE FOLLOWING KEY: 1 AAAAAU 00 0 0 BBBBB.BBBBBBBB .CCCCCCCC 00000-0 00000-0 0 DDDZ 2 AAAAA EEE.EEEE FFF.FFFF GGGGGGG HHH.HHHH III.IIII JJ.JJJJJJJJKKKKKZ KEY: A-CATALOGNUM B-EPOCHTIME C-DECAY D-ELSETNUM E-INCLINATION F-RAAN G-ECCENTRICITY H-ARGPERIGEE I-MNANOM J-MNMOTION K-ORBITNUM Z-CHECKSUM
TO ALL RADIO AMATEURS BT
AO-07 1 07530U 74089B 09036.64763188 -.00000027 00000-0 10000-3 0 3958 2 07530 101.4421 066.0898 0011842 165.6894 194.4511 12.53575183566239 AO-10 1 14129U 83058B 09035.19866765 .00000133 00000-0 10000-3 0 6174 2 14129 026.0091 173.0627 5969667 195.3590 132.9151 02.05867543192883 UO-11 1 14781U 84021B 09035.67540851 -.00000027 00000-0 36730-5 0 08790 2 14781 098.1280 078.8132 0009794 050.1518 310.0574 14.79692050338231 RS-15 1 23439U 94085A 09035.74065071 -.00000039 00000-0 10000-3 0 02365 2 23439 064.8160 118.9956 0145907 077.3647 284.3546 11.27553148581189 FO-29 1 24278U 96046B 09035.84979680 -.00000088 00000-0 -51632-4 0 09816 2 24278 098.5730 287.5344 0350335 333.3253 025.0232 13.52942400615850 SO-33 1 25509U 98061B 09035.46038307 -.00000089 00000-0 -32197-4 0 03846 2 25509 031.4345 082.9957 0355020 257.9932 098.0687 14.28238811536847 AO-40 1 26609U 00072B 09035.83373263 -.00000035 00000-0 10000-3 0 1887 2 26609 008.6494 034.4596 7947808 172.5009 217.8958 01.25583595 37962 VO-52 1 28650U 05017B 09035.67648146 .00000192 00000-0 30864-4 0 01475 2 28650 097.7604 101.5337 0028353 102.1683 258.2747 14.81549986203025 PO-63 1 29712U 07001D 09036.76489375 .00000388 00000-0 57441-4 0 2139 2 29712 097.8470 096.2180 0014101 347.1745 012.9102 14.80431900112023 AO-16 1 20439U 90005D 09035.63890401 -.00000005 00000-0 13511-4 0 5278 2 20439 098.2624 010.1913 0010481 200.9917 159.0845 14.31815006994180 LO-19 1 20442U 90005G 09034.39011285 -.00000041 00000-0 -20277-6 0 04515 2 20442 098.2272 016.7686 0011596 201.4756 158.5938 14.32051601994166 AO-27 1 22825U 93061C 09036.81388492 .00000053 00000-0 37412-4 0 1709 2 22825 098.4196 354.4919 0007504 294.2381 065.8019 14.29258126801141 IO-26 1 22826U 93061D 09035.84724059 -.00000005 00000-0 14677-4 0 08898 2 22826 098.4135 354.3648 0008137 292.8941 067.1392 14.29508485801103 GO-32 1 25397U 98043D 09035.61521771 .00000005 00000-0 20418-4 0 08169 2 25397 098.3407 064.9769 0000330 295.8469 064.2682 14.23154592549270 NO-44 1 26931U 01043C 09035.49500491 -.00000251 00000-0 -65579-4 0 00928 2 26931 067.0512 046.1916 0005621 260.8564 099.1899 14.29545348383617 SO-50 1 27607U 02058C 09035.58849474 -.00000091 00000-0 82058-5 0 08070 2 27607 064.5583 067.8129 0079843 234.2324 125.1345 14.71412644329165 CO-55 1 27844U 03031E 09035.65243590 .00000010 00000-0 25097-4 0 5043 2 27844 098.7160 046.6774 0010010 161.9687 198.1849 14.20620374290440 CO-57 1 27848U 03031J 09036.52734018 .00000001 00000-0 20763-4 0 4510 2 27848 098.7172 046.6051 0009685 163.5682 196.5806 14.20425142290535 AO-51 1 28375U 04025K 09035.58454181 -.00000000 00000-0 12372-4 0 3094 2 28375 098.0564 052.8899 0083463 167.0833 193.2519 14.40632051241869 CO-56 1 28941U 06005C 09036.72226953 .00045787 32549-5 24219-3 0 7919 2 28941 098.1247 188.1095 0122305 264.7268 094.0118 15.70609689166521 CP3 1 31128U 07012M 09036.39572542 -.00000048 00000-0 00000 0 0 5482 2 31128 098.0100 095.5878 0102772 334.2260 025.3837 14.52015428 95774 CP4 1 31132U 07012Q 09035.16418389 .00000061 00000-0 24058-4 0 05331 2 31132 098.0150 097.7421 0084912 328.4478 031.1642 14.55180658095683 CO-65 1 32785U 08021C 09035.33796112 .00000215 00000-0 34242-4 0 02906 2 32785 097.9640 100.2969 0016101 101.5492 258.7532 14.81445366041773 NOAA-10 1 16969U 86073A 09035.60177696 -.00000056 00000-0 -46005-5 0 04891 2 16969 098.7061 062.8878 0011870 220.7694 139.2613 14.27378977164595 NOAA-11 1 19531U 88089A 09035.68502117 -.00000206 00000-0 -84037-4 0 05025 2 19531 098.7863 127.6832 0012084 123.6169 236.6174 14.14887258050781 NOAA-12 1 21263U 91032A 09035.94547031 -.00000000 00000-0 18751-4 0 00144 2 21263 098.7730 043.9397 0012406 165.8459 194.3071 14.25565191921552 MET-3/5 1 21655U 91056A 09035.96296614 .00000051 00000-0 10000-3 0 05705 2 21655 082.5533 299.9204 0013712 146.4617 213.7375 13.17018261840229 MET-2/21 1 22782U 93055A 09035.77206813 -.00000082 00000-0 -87746-4 0 3705 2 22782 082.5472 287.0584 0022607 001.9864 358.1369 13.83633785779296 OKEAN-4 1 23317U 94066A 09035.69071389 .00000256 00000-0 28587-4 0 08212 2 23317 082.5385 098.1400 0023991 081.6825 278.7112 14.82672724772732 NOAA-14 1 23455U 94089A 09035.82566943 .00000228 00000-0 14394-3 0 05025 2 23455 098.9214 113.9143 0009307 201.0515 159.0261 14.13758364727225 NOAA-15 1 25338U 98030A 09035.67424500 -.00000113 00000-0 -29942-4 0 08059 2 25338 098.5761 027.8542 0011666 084.8532 275.3971 14.24743491557906 RESURS 1 25394U 98043A 09035.65749381 -.00000037 00000-0 18889-5 0 01517 2 25394 098.3584 074.6441 0000604 229.2881 130.8244 14.24179816549531 FENGYUN1 1 25730U 99025A 09035.95909389 .00000152 00000-0 11444-3 0 06825 2 25730 098.7441 010.1469 0021676 231.4688 128.4539 14.07921090501716 OKEAN-0 1 25860U 99039A 09035.55544770 .00000022 00000-0 10564-4 0 5928 2 25860 097.7732 022.1056 0000492 076.9618 283.1640 14.73556929513617 NOAA-16 1 26536U 00055A 09035.68965001 .00000263 00000-0 16752-3 0 02790 2 26536 099.1753 036.1683 0009772 294.8425 065.1730 14.12510524431593 NOAA-17 1 27453U 02032A 09035.76745302 .00000136 00000-0 77572-4 0 02893 2 27453 098.5041 099.2943 0012284 146.5665 213.6293 14.24038727343909 NOAA-18 1 28654U 05018A 09035.82112904 .00000386 00000-0 23826-3 0 07745 2 28654 098.8946 340.1789 0014596 020.3126 339.8621 14.11232421191286 HUBBLE 1 20580U 90037B 09035.88828546 .00000295 00000-0 99842-5 0 03267 2 20580 028.4693 245.4123 0003486 334.9013 025.1409 15.00452231829962 PO-34 1 25520U 98064B 09035.39188473 .00000382 00000-0 90096-5 0 1782 2 25520 028.4603 064.0759 0005268 291.9781 068.0255 15.17291850568462 ISS 1 25544U 98067A 09036.79339567 .00006377 00000-0 54970-4 0 2138 2 25544 051.6417 259.7073 0008114 353.1459 086.5146 15.70764581585285 CO-58 1 28895U 05043F 09035.70294023 -.00000016 00000-0 62505-5 0 2251 2 28895 098.0773 289.9067 0018655 045.9914 314.2834 14.59738521174402 FALCON 1 30776U 07006E 09035.79354431 .00000233 00000-0 19954-4 0 05041 2 30776 035.4325 182.6160 0001546 272.9360 087.1179 15.03159962105163 MAST 1 31126U 07012K 09035.65361233 -.00000107 00000-0 -13451-4 0 05229 2 31126 098.0076 096.4108 0094476 331.7994 027.8101 14.53474857095785 CAPE1 1 31130U 07012P 09035.14760800 .00000113 00000-0 37228-4 0 05257 2 31130 098.0112 094.4089 0102459 338.0108 021.6710 14.52030833095380 COMPASS 1 32787U 08021E 09035.39216793 .00000031 00000-0 10793-4 0 02839 2 32787 097.9612 100.2400 0017040 102.8836 257.4284 14.81541317041787 AAUSAT2 1 32788U 08021F 09036.18128558 .00000135 00000-0 23874-4 0 2737 2 32788 097.9616 101.0625 0016801 101.5160 258.7927 14.81661338 41908 DO-64 1 32789U 08021G 09035.86212517 .00000079 00000-0 16823-4 0 2835 2 32789 097.9648 100.8325 0016694 100.9123 259.3966 14.81604515 41858 CO-66 1 32791U 08021J 09036.83868719 .00000057 00000-0 14138-4 0 2650 2 32791 097.9631 101.7055 0017281 096.7436 263.5747 14.81383478 41963 RS-30 1 32953U 08025A 09035.78423382 .00000010 00000-0 00000-0 0 02254 2 32953 082.5060 338.9475 0020071 105.3362 254.9939 12.42999683031945 /EX
participants (1)
-
Ray Hoad